BSAT-3C

导读 | 豆包AI

BSAT-3C(也叫JCSAT-110R)是由日本B-SAT与SKY Perfect JSAT联合运营的地球静止轨道广播通信卫星,由洛克希德·马丁基于A2100A平台建造,定位于东经110度轨道。该卫星设计用于支持日本BS数字广播业务,可同时传输全部12个BS右旋圆极化广播信号,设计寿命15年,主要为日本本土提供高清数字电视等广播服务。

基本信息
目录编号:
37776
目录名称:
BSAT-3C
国际标识:
2011-041B
轨道中心:
EARTH
卫星名称:
BSAT-3C
卫星全名:
--
卫星状态:
在轨 (已飞行5381 天)
发射日期:
2011-08-06 UTC
国别 :
日本 (JP)
星等 :
--
轨道信息
数据来源 国际轨道数据 AOE轨道数据
星历时间 2026-04-30T20:12:27+0800
10小时前
查看轨道信息
2026-05-01T01:00:00+0800
6小时前
查看轨道信息
半长轴 42165.794km 42165.878km
偏心率 0.0000187 0.000001
轨道倾角 0.042° 0.039°
近地点辐角 38.804° 57.602°
升交点赤经 46.485° 51.411°
平近点角 66.240° 114.595°
近地点 35786.868km 35787.698km
远地点 35788.446km 35787.784km
周期 1436.151分钟 1436.155分钟
每日圈数 1.00268 1.002677
详细信息
使用方式:
暂无
2D轨道图
3D轨道图
轨道高度分析图
轨道倾角分析图
轨道综合分析图
查看轨道综合分析图